ARIANE 5 DEB (SYLDA), 45247

Orbit data source: Space-Track

ARIANE 5 DEB (SYLDA), 45247 is space debris in HEO originally from a launch on Tue, 18 Feb 2020 UTC launched from the French Guiana (FRGUI). Debris objects in space refer to the collection of defunct objects orbiting the Earth. Examples of debris include non-operational satellites, rocket bodies, and fragments generated from explosions, collisions, or faulty payload assembly.

Loading next visibility...
Identifier
45247, 2020-013C
Orbit
HEO
Country
Flag of FRFR
Related business
Manufacturer
ADS/Bremen
Mission
Spacecraft
Bus & Motor
SYLDA 5, Unknown motor
Mass
440 kg wet, 440 kg dry
Launch date (UTC)
2020-02-18 (7 years ago)
Launch vehicle
Unknown
Launch site
French Guiana (FRGUI)
Object type
Payload
Rocket body
Debris
Shape & HBR
Cyl, 3.6 m
Radar Cross Section
27.391 m², Large (>1 m²)

Expand to show TLE details & history
Last TLE update: 12 hours ago

TLE from 12 hours ago
0 ARIANE 5 DEB (SYLDA)
1 45247U 20013C   26258.24119633  .00021656  00000-0  45153-2 0  9990
2 45247   5.5817  97.3649 6207981 213.9273  83.6450  3.73437487 67496
Epoch: 2026-09-15T05:47Z
TLE epoch observation values (Epoch: 2026-09-15T05:47:19.362Z)
Latitude
0.00001°
Longitude
16.42819°
Altitude
15,877.238 km
Speed
3.62 km/s
True Right ascension
06h 29m 52s
True Declination
0° 00' 00"
Sunlit
Object was in daylight at epoch
Visualization orbit readout
Latitude
Unknown
Longitude
Unknown
Altitude
Unknown
Speed
Unknown
Apparent Right ascension
Unknown
Apparent Declination
Unknown
Sunlit
N/A
Visualization observer readout
Local Sidereal Time
10:20:48
Azimuth
Unknown
Elevation
Unknown
Doppler factor
Unknown
Orbital elements
Apogee altitude
22,073.865 km
Perigee altitude
278.493 km
Semi-major axis
17,554.316 km
Eccentricity
0.6208
Inclination
5.5817°
RAAN
97.3649°
Arg. of periapsis
213.9273°
True anomaly
146.1783°
Mean anomaly
83.645°
Eccentric anomaly
115.69646°
Mean motion
0.93318 °/min
Orbital period
385.78 mins
BSTAR
0.0045153
Loading maneuver chart data...
Computing Atmospheric mass density...
Loading historical data...
Loading historical data...
Loading historical data...
Loading historical data...
Loading historical data...
Loading historical data...
Loading historical data...
Other satellites on launch #13 in the year 2020 (2020-02-18 UTC)

Documentation

Showing up to 5 results
|